Simultaneous Nadir Overpasses (SNOs) Predictions

Prediction of SNOs near equator between AQUA and NPP Satellite Orbit:

Table of predicted SNOs near equator for the next 14.0 days since TLE Epoch: 1/13/2017
Index Date (AQUA) Time (AQUA) AQUA Lat,Lon Date (NPP) Time (NPP) NPP Lat,Lon Distance(km) Time Diff (sec)
1 01/13/2017 15:36:04 5.94, -31.04 01/13/2017 15:26:08 5.89, -31.17 15.78 596
2 01/13/2017 16:24:11 -1.38, 137.59 01/13/2017 16:15:31 -1.32, 137.18 45.87 520
3 01/13/2017 17:12:26 -3.19, -53.81 01/13/2017 17:05:01 -3.33, -54.48 75.78 445
4 01/16/2017 07:52:14 4.66, 85.11 01/16/2017 07:42:40 4.59, 84.89 25.27 574
5 01/16/2017 08:40:21 -0.11,-106.26 01/16/2017 08:32:03 -0.02,-106.75 55.41 498
6 01/16/2017 09:28:36 -4.47, 62.33 01/16/2017 09:21:33 -4.63, 61.58 85.16 423
7 01/19/2017 00:08:23 3.33,-158.73 01/18/2017 23:59:11 3.24,-159.03 34.82 552
8 01/19/2017 00:56:30 1.23, 9.90 01/19/2017 00:48:34 1.33, 9.32 64.87 476
9 01/19/2017 01:44:45 -5.80, 178.49 01/19/2017 01:38:04 -5.98, 177.66 94.43 401
10 01/21/2017 15:38:28 -14.55, 147.09 01/21/2017 15:28:29 -14.58, 146.86 24.72 600
11 01/21/2017 16:24:29 1.89, -42.55 01/21/2017 16:15:40 1.83, -42.94 44.25 529
12 01/21/2017 17:12:37 2.61, 126.07 01/21/2017 17:05:03 2.75, 125.41 74.27 454
13 01/24/2017 07:52:23 -5.14, -94.99 01/24/2017 07:42:41 -5.13, -95.20 23.82 582
14 01/24/2017 08:40:38 0.57, 73.61 01/24/2017 08:32:11 0.48, 73.14 53.80 507
15 01/24/2017 09:28:46 3.93,-117.78 01/24/2017 09:21:34 4.10,-118.51 83.74 432
16 01/27/2017 00:08:32 -3.83, 21.17 01/26/2017 23:59:12 -3.78, 20.88 33.27 560
17 01/27/2017 00:56:47 -0.74,-170.23 01/27/2017 00:48:42 -0.87,-170.79 63.45 485
18 01/27/2017 01:44:54 5.30, -1.61 01/27/2017 01:38:05 5.44, -2.43 93.20 409




NCC Satellite Simultaneous Nadir Overpasses (SNOs) Prediction Service
